This is the latest recevied weather packets stored in our database for station/object DM2KB-13. If no packets are shown the sender has not sent any weather packets the latest 10 day(s).
| Time | Temp. | Humidity | Pressure | Rain* | Wind** | Luminosity | Snow |
|---|---|---|---|---|---|---|---|
| 1777646987 | 25.56° C | 26% | 1021.9 hPa | 0 mm | - | 573 W/m² | - |
| 1777646686 | 25.56° C | 26% | 1022 hPa | 0 mm | - | 585 W/m² | - |
| 1777646386 | 25.56° C | 27% | 1021.9 hPa | 0 mm | - | 596 W/m² | - |
| 1777646086 | 25.56° C | 27% | 1022 hPa | 0 mm | - | 606 W/m² | - |
| 1777645785 | 25.56° C | 26% | 1022 hPa | 0 mm | - | 619 W/m² | - |
| 1777645485 | 25.56° C | 27% | 1022 hPa | 0 mm | - | 628 W/m² | - |
| 1777645185 | 25.56° C | 27% | 1022.1 hPa | 0 mm | - | 635 W/m² | - |
| 1777644885 | 25.56° C | 30% | 1022.2 hPa | 0 mm | - | 645 W/m² | - |
| 1777644584 | 25.56° C | 26% | 1022.3 hPa | 0 mm | - | 652 W/m² | - |
| 1777644284 | 25.56° C | 28% | 1022.3 hPa | 0 mm | - | 663 W/m² | - |
| 1777643984 | 25.56° C | 28% | 1022.3 hPa | 0 mm | - | 675 W/m² | - |
| 1777643683 | 25.56° C | 27% | 1022.3 hPa | 0 mm | - | 680 W/m² | - |
| 1777643383 | 25.56° C | 27% | 1022.5 hPa | 0 mm | - | 687 W/m² | - |
| 1777643083 | 25.56° C | 27% | 1022.5 hPa | 0 mm | - | 696 W/m² | - |
| 1777642783 | 25.56° C | 26% | 1022.5 hPa | 0 mm | - | 705 W/m² | - |
| 1777642482 | 25.56° C | 26% | 1022.6 hPa | 0 mm | - | 712 W/m² | - |
| 1777642182 | 25.56° C | 28% | 1022.7 hPa | 0 mm | - | 719 W/m² | - |
| 1777641882 | 25.56° C | 27% | 1022.7 hPa | 0 mm | - | 728 W/m² | - |
| 1777641581 | 25.56° C | 27% | 1022.8 hPa | 0 mm | - | 735 W/m² | - |
| 1777641281 | 25.56° C | 28% | 1022.9 hPa | 0 mm | - | 744 W/m² | - |
| 1777640981 | 25° C | 29% | 1023 hPa | 0 mm | - | 745 W/m² | - |
| 1777640681 | 25° C | 27% | 1023.1 hPa | 0 mm | - | 751 W/m² | - |
| 1777640380 | 25° C | 29% | 1023.2 hPa | 0 mm | - | 758 W/m² | - |
| 1777640080 | 25° C | 26% | 1023.2 hPa | 0 mm | - | 761 W/m² | - |
| 1777639780 | 25° C | 27% | 1023.2 hPa | 0 mm | - | 765 W/m² | - |
* Rain latest hour (hover to see other rain measurements)
** Current wind speed in m/s (hover to see current wind gust speed)